This demonstration page uses our WeatherBlox Daily Observations layout. Learn more.

Left ArrowRight Arrow

Hourly Observations for September 17, 2018

Temp ( °F °C ) Dew Point ( °F °C ) Humidity (%) Winds ( mph kmh ) Pressure ( in mb ) Visibility ( mi km ) Precip ( " mm )
12:53 am 00:53 Clear 72 22.2 66 18.9 82 82 S 7 11 29.90 1012 10 16 0.00 0.00
1:53 am 01:53 Clear 70 21.1 65 18.3 84 84 S 6 9 29.91 1013 10 16 0.00 0.00
2:53 am 02:53 Clear 71 21.7 65 18.3 81 81 S 7 11 29.90 1013 10 16 0.00 0.00
3:53 am 03:53 Clear 70 21.1 65 18.3 84 84 S 8 13 29.89 1012 10 16 0.00 0.00
4:53 am 04:53 Clear 68 20 65 18.3 90 90 S 7 11 29.89 1012 10 16 0.00 0.00
5:53 am 05:53 Clear 68 20 65 18.3 90 90 S 7 11 29.88 1012 10 16 0.00 0.00
6:53 am 06:53 Clear 67 19.4 65 18.3 93 93 S 7 11 29.89 1012 10 16 0.00 0.00
7:53 am 07:53 Sunny 68 20 65 18.3 90 90 S 8 13 29.90 1013 10 16 0.00 0.00
8:53 am 08:53 Sunny 70 21.1 67 19.4 90 90 S 7 11 29.91 1013 10 16 0.00 0.00
9:53 am 09:53 Sunny 76 24.4 69 20.6 79 79 S 7 11 29.91 1013 10 16 0.00 0.00
10:53 am 10:53 Sunny 80 26.7 69 20.6 69 69 S 6 9 29.90 1013 10 16 0.00 0.00
11:53 am 11:53 Sunny 83 28.3 69 20.6 63 63 S 7 11 29.90 1012 10 16 0.00 0.00
12:53 pm 12:53 Sunny 87 30.6 69 20.6 55 55 S 8 13 29.88 1012 10 16 0.00 0.00
1:53 pm 13:53 Sunny 89 31.7 66 18.9 47 47 SSW 10 17 29.86 1011 10 16 0.00 0.00
2:53 pm 14:53 Sunny 91 32.8 65 18.3 42 42 SSW 10 17 29.84 1011 10 16 0.00 0.00
3:53 pm 15:53 Mostly Sunny 90 32.2 66 18.9 45 45 S 14 22 29.84 1010 10 16 0.00 0.00
4:53 pm 16:53 Sunny 90 32.2 66 18.9 45 45 S 12 19 29.82 1010 10 16 0.00 0.00
5:53 pm 17:53 Sunny 90 32.2 64 17.8 42 42 S 8 13 29.82 1010 10 16 0.00 0.00
6:53 pm 18:53 Sunny 87 30.6 65 18.3 48 48 S 6 9 29.83 1010 10 16 0.00 0.00
7:53 pm 19:53 Clear 84 28.9 66 18.9 55 55 SSE 9 15 29.83 1010 10 16 0.00 0.00
8:53 pm 20:53 Clear 82 27.8 66 18.9 58 58 SSE 10 17 29.85 1011 10 16 0.00 0.00
9:53 pm 21:53 Clear 79 26.1 67 19.4 67 67 SSE 10 17 29.86 1011 10 16 0.00 0.00
10:53 pm 22:53 Clear 77 25 68 20 74 74 SSE 9 15 29.87 1011 10 16 0.00 0.00
11:53 pm 23:53 Clear 75 23.9 68 20 79 79 SSE 9 15 29.88 1012 10 16 0.00 0.00

Powered by AerisWeather